15min,AgWx,beryljct,423,28NOV2020:00:00:00,15.8,12.76,17.9,16.7,16.2,16.9,15.2,80,82,77,0.263,11.0,12.1,9.4,3.661,3.2,306,4.9,3.7,-0.00005,-0.00005,31.2,37.0,8,0,0,.,6.01,0.00,0.00
15min,AgWx,beryljct,423,28NOV2020:00:15:00,15.7,12.74,17.5,17.6,18.4,19.0,16.9,78,82,76,0.256,12.6,13.7,11.5,3.793,3.3,327,3.2,3.8,-0.00004,-0.00004,31.0,37.0,8,0,0,.,6.01,0.00,0.00
15min,AgWx,beryljct,423,28NOV2020:00:30:00,15.6,12.75,13.7,13.8,15.4,17.5,13.8,79,81,76,0.226,10.1,11.4,8.6,5.239,5.2,308,4.4,6.2,-0.00001,-0.00001,30.8,36.9,8,0,0,.,6.01,0.00,0.00
15min,AgWx,beryljct,423,28NOV2020:00:45:00,15.3,12.72,15.4,14.5,13.9,15.3,12.4,82,85,79,0.236,9.3,11.3,7.2,5.722,4.7,307,8.5,6.5,-0.00002,-0.00002,30.5,36.9,8,0,0,.,6.01,0.00,0.00
15min,AgWx,beryljct,423,28NOV2020:01:00:00,15.4,12.71,14.4,15.4,16.2,17.6,14.5,81,83,78,0.246,11.5,13.0,9.7,2.543,4.5,288,4.4,6.5,-0.00003,-0.00003,30.4,36.8,8,0,0,.,6.00,0.00,0.00
15min,AgWx,beryljct,423,28NOV2020:01:15:00,15.5,12.7,17.6,16.6,16.0,17.9,13.9,81,85,76,0.261,11.2,13.2,9.0,4.319,4.0,289,7.3,5.5,-0.00003,-0.00003,30.2,36.8,8,0,0,.,6.01,0.00,0.00
15min,AgWx,beryljct,423,28NOV2020:01:30:00,15.6,12.71,16.3,15.3,16.1,17.3,15.0,81,82,79,0.247,11.1,12.6,9.7,3.793,3.8,291,5.1,5.1,-0.00004,-0.00004,30.0,36.7,8,0,0,.,6.01,0.00,0.00
15min,AgWx,beryljct,423,28NOV2020:01:45:00,15.3,12.7,12.9,12.7,14.4,15.5,12.7,82,83,81,0.223,9.8,11.0,8.3,5.415,4.4,305,6.9,5.4,-0.00003,-0.00003,29.8,36.7,8,0,0,.,6.01,0.00,0.00
15min,AgWx,beryljct,423,28NOV2020:02:00:00,14.9,12.69,16.7,15.4,14.2,15.7,12.7,84,85,82,0.248,10.1,11.7,8.4,3.047,3.9,296,5.9,5.7,-0.00004,-0.00004,29.7,36.6,9,0,0,.,6.01,0.00,0.00
15min,AgWx,beryljct,423,28NOV2020:02:15:00,14.6,12.67,16.5,15.7,14.8,15.7,14.2,83,84,80,0.258,10.6,11.6,9.1,1.206,1.6,259,12,2.6,-0.00009,-0.00011,29.5,36.5,8,0,0,.,6.01,0.00,0.00
15min,AgWx,beryljct,423,28NOV2020:02:30:00,14.5,12.66,15.0,14.0,15.6,16.3,14.0,82,84,81,0.231,11.2,12.0,9.2,3.486,2.6,212,22,4.3,-0.00006,-0.00007,29.4,36.5,8,0,0,.,6.01,0.00,0.00
15min,AgWx,beryljct,423,28NOV2020:02:45:00,14.0,12.66,9.0,8.6,9.9,14.2,8.4,82,85,79,0.192,5.6,9.5,4.5,5.217,5.4,157,4.4,6.5,-0.00001,-0.00001,29.2,36.4,8,0,0,.,6.01,0.00,0.00
15min,AgWx,beryljct,423,28NOV2020:03:00:00,13.1,12.65,11.0,10.0,9.1,10.0,8.5,86,87,85,0.208,5.6,6.8,4.9,6.555,5.9,177,8.8,7.2,-0.00002,-0.00002,29.1,36.3,8,0,0,.,6.01,0.00,0.00
15min,AgWx,beryljct,423,28NOV2020:03:15:00,12.8,12.63,13.5,12.9,11.7,13.0,10.1,86,87,85,0.231,8.3,9.4,6.9,6.423,6.4,180,4.6,7.7,-0.00002,-0.00001,29.0,36.3,8,0,0,.,6.01,0.00,0.00
15min,AgWx,beryljct,423,28NOV2020:03:30:00,13.0,12.61,14.6,14.4,13.3,14.4,12.8,84,85,84,0.244,9.4,10.4,8.9,5.546,6.2,179,5.1,7.1,-0.00001,-0.00001,28.8,36.2,8,0,0,.,6.01,0.00,0.00
15min,AgWx,beryljct,423,28NOV2020:03:45:00,13.4,12.6,13.4,11.6,13.9,14.8,10.6,82,84,77,0.212,9.3,10.5,4.9,2.346,4.8,194,38,7.0,-0.00002,-0.00002,28.6,36.2,8,0,0,.,6.01,0.00,0.00
15min,AgWx,beryljct,423,28NOV2020:04:00:00,12.8,12.58,6.5,6.0,6.6,12.0,5.7,82,85,78,0.170,2.3,8.0,1.2,2.85,3.1,318,6.9,4.5,-0.00004,-0.00004,28.5,36.1,8,0,0,.,6.01,0.00,0.00
15min,AgWx,beryljct,423,28NOV2020:04:15:00,11.6,12.57,6.3,5.6,5.4,6.0,5.0,85,86,84,0.169,1.8,2.4,1.3,3.924,3.4,330,4.0,5.0,-0.00003,-0.00004,28.4,36.0,8,0,0,.,6.01,0.00,0.00
15min,AgWx,beryljct,423,28NOV2020:04:30:00,10.5,12.55,5.4,5.2,5.6,6.0,5.2,86,87,85,0.165,2.3,2.8,1.8,1.82,3.4,328,3.3,4.6,-0.00004,-0.00004,28.3,35.9,8,0,0,.,6.02,0.00,0.00
15min,AgWx,beryljct,423,28NOV2020:04:45:00,9.6,12.55,4.8,4.2,4.7,5.2,4.1,85,86,85,0.156,1.3,1.8,0.5,0.855,1.8,326,0.9,2.5,-0.00006,-0.00007,28.2,35.9,8,0,0,.,6.02,0.00,0.00
15min,AgWx,beryljct,423,28NOV2020:05:00:00,8.9,12.53,5.3,5.4,5.8,7.3,4.1,87,88,85,0.165,2.7,4.4,0.6,2.784,0.5,312,39,3.1,-0.00010,-0.00014,28.0,35.8,8,0,0,.,6.02,0.00,0.00
15min,AgWx,beryljct,423,28NOV2020:05:15:00,8.3,12.52,4.7,3.9,4.5,5.5,3.4,84,86,83,0.155,0.8,2.0,-0.5,2.499,2.7,191,32,3.5,-0.00004,-0.00005,27.9,35.7,8,0,0,.,6.02,0.00,0.00
15min,AgWx,beryljct,423,28NOV2020:05:30:00,7.8,12.51,6.3,5.3,4.9,5.5,4.0,86,87,84,0.164,1.5,2.0,0.6,1.798,1.0,238,26,2.9,-0.00008,-0.00010,27.8,35.7,8,0,0,.,6.01,0.00,0.00
15min,AgWx,beryljct,423,28NOV2020:05:45:00,7.4,12.51,6.3,5.0,5.0,5.5,4.6,85,86,84,0.163,1.4,2.1,0.9,2.565,1.9,169,76,3.7,-0.00006,-0.00007,27.6,35.6,8,0,0,.,6.02,0.00,0.00
15min,AgWx,beryljct,423,28NOV2020:06:00:00,7.2,12.5,4.2,4.0,4.6,5.5,4.0,85,86,84,0.154,1.0,2.2,0.3,3.223,3.0,189,17,3.7,-0.00004,-0.00004,27.5,35.6,8,0,0,.,6.02,0.00,0.00
15min,AgWx,beryljct,423,28NOV2020:06:15:00,7.0,12.48,6.8,6.5,4.7,6.6,3.6,86,88,84,0.178,1.5,3.7,-0.1,2.872,2.7,194,8.1,3.3,-0.00004,-0.00005,27.4,35.5,8,0,0,.,6.01,0.00,0.00
15min,AgWx,beryljct,423,28NOV2020:06:30:00,7.0,12.48,6.0,6.6,7.1,7.5,6.4,87,88,87,0.179,4.1,4.6,3.3,1.535,2.9,171,7.8,3.4,-0.00005,-0.00005,27.2,35.4,8,0,0,.,6.01,0.00,0.00
15min,AgWx,beryljct,423,28NOV2020:06:45:00,6.9,12.47,3.5,3.1,4.1,6.5,3.1,84,87,84,0.147,0.4,3.3,-0.6,0.329,2.2,168,19,4.1,0.00003,0.00005,27.1,35.3,8,0,0,.,6.01,0.00,0.00
15min,AgWx,beryljct,423,28NOV2020:07:00:00,6.5,12.46,3.0,2.4,2.6,3.1,2.3,84,84,83,0.142,-1.2,-0.7,-1.6,0.636,0.6,160,3.6,1.9,0.00001,0.00001,26.9,35.3,8,0,0,.,6.01,0.00,0.00
15min,AgWx,beryljct,423,28NOV2020:07:15:00,6.0,12.46,2.8,2.2,2.2,2.4,1.9,83,84,82,0.139,-1.9,-1.4,-2.3,1.074,0.9,157,8.6,1.9,0.00001,0.00002,26.8,35.2,8,0,0,.,6.01,0.00,0.00
15min,AgWx,beryljct,423,28NOV2020:07:30:00,5.6,12.46,2.9,2.4,2.6,3.5,2.0,83,84,81,0.140,-1.5,-0.4,-2.4,2.696,1.6,151,88,3.7,0.00003,0.00004,26.7,35.1,9,4,0,.,6.01,0.00,0.00
15min,AgWx,beryljct,423,28NOV2020:07:45:00,5.3,12.73,2.7,1.9,2.3,2.7,1.9,83,83,81,0.136,-1.8,-1.2,-2.5,2.762,2.9,342,6.5,3.7,0.00007,0.00009,26.6,35.0,8,20,0,.,6.01,0.00,0.00
15min,AgWx,beryljct,423,28NOV2020:08:00:00,5.7,13.82,4.1,3.3,2.7,3.3,1.9,83,84,82,0.149,-1.2,-0.4,-2.5,1.425,2.5,343,10,3.8,0.00012,0.00015,26.4,35.0,9,62,0,.,6.02,0.00,0.00
15min,AgWx,beryljct,423,28NOV2020:08:15:00,6.9,14.9,6.8,5.8,4.5,5.8,3.4,85,85,84,0.168,0.9,2.2,-0.4,1.6,1.7,327,3.6,2.4,0.00017,0.00019,26.3,34.9,9,98,0,.,6.01,0.00,0.00
15min,AgWx,beryljct,423,28NOV2020:08:30:00,9.2,14.89,12.6,10.8,8.4,10.8,5.9,84,86,83,0.208,4.6,7.0,2.3,0,0.2,337,0.0,1.4,0.00026,0.00028,26.2,34.8,9,135,0,.,6.02,0.00,0.00
15min,AgWx,beryljct,423,28NOV2020:08:45:00,12.2,14.96,12.3,11.6,11.1,11.7,10.6,83,84,81,0.216,6.9,7.8,5.9,0.307,0.4,338,0.6,1.3,0.00036,0.00038,26.1,34.8,8,173,0,.,6.01,0.00,0.00
15min,AgWx,beryljct,423,28NOV2020:09:00:00,15.7,14.91,14.8,14.2,12.8,14.2,11.6,84,85,83,0.244,8.9,10.4,7.6,0,0.6,339,0.1,1.6,0.00046,0.00049,26.0,34.7,9,212,0,.,6.01,0.00,0.00
15min,AgWx,beryljct,423,28NOV2020:09:15:00,19.2,14.96,16.7,16.1,15.2,16.1,14.0,83,85,82,0.258,11.0,11.7,10.1,1.162,0.5,339,0.2,1.2,0.00059,0.00063,25.9,34.6,9,252,0,.,6.00,0.00,0.00
15min,AgWx,beryljct,423,28NOV2020:09:30:00,22.3,14.88,19.8,18.7,17.5,18.7,16.2,79,82,74,0.261,12.1,12.5,11.7,2.192,2.2,350,16,3.6,0.00069,0.00077,25.9,34.5,9,290,0,.,6.01,0.00,0.00
15min,AgWx,beryljct,423,28NOV2020:09:45:00,24.8,14.85,22.5,21.4,20.0,21.4,18.8,73,75,71,0.281,12.8,13.6,11.8,2.872,2.4,354,13,3.9,0.00085,0.00095,25.9,34.5,9,327,0,.,6.01,0.00,0.00
15min,AgWx,beryljct,423,28NOV2020:10:00:00,27.1,14.84,23.8,23.9,22.5,24.0,21.4,69,72,68,0.300,14.0,15.3,13.4,2.696,2.0,0.9,26,3.4,0.00101,0.00113,25.9,34.4,9,362,0,.,6.01,0.00,0.00
15min,AgWx,beryljct,423,28NOV2020:10:15:00,29.7,14.87,25.2,25.3,24.2,25.3,23.7,66,69,65,0.301,14.6,15.5,14.2,0.789,0.9,22,28,2.2,0.00118,0.00129,26.0,34.3,8,395,0,.,6.00,0.00,0.00
15min,AgWx,beryljct,423,28NOV2020:10:30:00,31.9,14.39,27.5,26.3,25.8,26.7,24.9,65,66,63,0.308,15.5,16.3,14.8,0.241,1.7,130,25,3.7,0.00131,0.00145,26.1,34.3,8,427,0,.,6.01,0.00,0.00
15min,AgWx,beryljct,423,28NOV2020:10:45:00,33.4,14.34,28.3,27.2,27.2,27.8,26.4,62,65,61,0.308,16.1,17.3,15.5,2.17,2.4,136,36,4.3,0.00143,0.00161,26.3,34.2,8,454,0,.,6.00,0.00,0.00
15min,AgWx,beryljct,423,28NOV2020:11:00:00,34.5,14.31,30.6,29.5,28.3,29.5,27.4,60,62,59,0.327,16.2,17.1,15.6,2.718,1.8,108,45,3.6,0.00155,0.00173,26.5,34.1,8,477,0,.,6.01,0.00,0.00
15min,AgWx,beryljct,423,28NOV2020:11:15:00,35.7,14.28,30.5,30.3,29.6,30.8,28.6,57,59,55,0.317,16.3,17.1,15.5,3.332,2.6,133,25,4.8,0.00165,0.00187,26.8,34.1,8,498,0,.,6.00,0.00,0.00
15min,AgWx,beryljct,423,28NOV2020:11:30:00,36.8,14.27,31.9,31.9,31.0,32.0,30.2,54,56,52,0.317,16.4,17.6,15.9,2.916,2.3,115,38,4.4,0.00176,0.00199,27.1,34.0,8,514,0,.,6.00,0.00,0.00
15min,AgWx,beryljct,423,28NOV2020:11:45:00,38.0,14.28,33.1,32.6,32.6,34.0,31.5,51,53,49,0.317,16.4,17.2,15.7,1.491,1.9,78,66,4.5,0.00187,0.00210,27.5,33.9,8,526,0,.,6.00,0.00,0.00
15min,AgWx,beryljct,423,28NOV2020:12:00:00,39.2,14.23,33.1,34.5,33.4,34.7,32.6,49,51,48,0.322,16.4,17.3,15.8,3.551,2.0,48,23,5.1,0.00193,0.00218,27.9,33.9,8,534,0,.,6.00,0.00,0.00
15min,AgWx,beryljct,423,28NOV2020:12:15:00,40.2,14.2,34.6,35.5,34.6,36.2,33.7,47,48,45,0.318,16.5,17.3,16.0,3.442,1.9,14,66,4.5,0.00201,0.00227,28.4,33.9,8,540,0,.,6.00,0.00,0.00
15min,AgWx,beryljct,423,28NOV2020:12:30:00,41.1,14.24,36.4,35.7,35.5,36.1,34.8,45,46,44,0.320,16.3,17.1,15.6,1.425,2.1,39,38,4.7,0.00206,0.00233,28.9,33.8,8,542,0,.,5.99,0.00,0.00
15min,AgWx,beryljct,423,28NOV2020:12:45:00,42.1,14.2,36.3,37.0,36.7,37.5,35.9,44,45,42,0.321,16.6,17.2,16.1,1.184,1.9,62,36,5.8,0.00210,0.00238,29.4,33.8,8,540,0,.,5.99,0.00,0.00
15min,AgWx,beryljct,423,28NOV2020:13:00:00,43.0,14.19,37.5,38.4,37.7,38.7,36.7,42,44,41,0.324,16.7,18.0,16.0,3.683,2.3,46,32,5.3,0.00212,0.00243,29.9,33.8,8,534,0,.,5.99,0.00,0.00
15min,AgWx,beryljct,423,28NOV2020:13:15:00,44.0,14.14,41.5,39.0,38.7,40.0,38.0,41,42,40,0.324,16.9,18.2,16.4,2.609,2.5,63,32,4.6,0.00213,0.00247,30.5,33.8,8,525,0,.,5.99,0.00,0.00
15min,AgWx,beryljct,423,28NOV2020:13:30:00,44.8,14.04,40.0,39.6,39.6,40.7,38.7,39,41,38,0.323,16.9,18.0,16.2,1.096,2.7,63,37,5.9,0.00212,0.00247,31.0,33.8,8,513,0,.,5.99,0.00,0.00
15min,AgWx,beryljct,423,28NOV2020:13:45:00,45.4,14.06,41.3,41.1,40.5,41.4,39.7,38,39,37,0.328,17.1,17.9,16.4,2.039,2.8,60,34,6.1,0.00209,0.00246,31.6,33.8,8,496,0,.,5.98,0.00,0.00
15min,AgWx,beryljct,423,28NOV2020:14:00:00,46.2,14.02,41.1,41.4,41.2,41.7,40.6,37,38,37,0.327,17.2,17.8,16.7,2.346,3.4,62,27,5.4,0.00197,0.00238,32.1,33.8,8,459,0,.,5.98,0.00,0.00
15min,AgWx,beryljct,423,28NOV2020:14:15:00,47.0,13.99,42.3,42.6,42.1,43.3,41.0,37,38,35,0.337,17.5,18.7,16.8,3.42,3.0,70,45,5.5,0.00196,0.00235,32.7,33.9,8,453,0,.,5.99,0.00,0.00
15min,AgWx,beryljct,423,28NOV2020:14:30:00,47.8,13.95,44.4,43.3,42.7,43.6,41.9,36,37,35,0.341,17.6,18.1,17.0,2.916,2.4,78,27,5.5,0.00179,0.00213,33.1,33.9,8,418,0,.,5.98,0.00,0.00
15min,AgWx,beryljct,423,28NOV2020:14:45:00,48.6,13.97,43.2,43.9,43.5,44.1,42.9,35,36,34,0.338,17.7,18.2,17.2,4.472,3.0,74,35,6.1,0.00174,0.00213,33.6,34.0,8,395,0,.,5.98,0.00,0.00
15min,AgWx,beryljct,423,28NOV2020:15:00:00,49.3,13.93,44.2,44.1,43.8,44.3,43.4,34,35,34,0.338,17.6,18.3,17.2,2.499,2.5,60,31,4.6,0.00156,0.00190,34.1,34.1,8,363,0,.,5.98,0.00,0.00
15min,AgWx,beryljct,423,28NOV2020:15:15:00,50.0,13.94,44.3,44.6,44.3,44.9,43.6,34,35,33,0.334,17.6,18.0,17.3,2.477,2.4,57,49,4.8,0.00140,0.00173,34.5,34.1,8,329,0,.,5.97,0.00,0.00
15min,AgWx,beryljct,423,28NOV2020:15:30:00,50.4,13.93,44.6,44.8,44.7,45.1,44.3,33,34,33,0.333,17.6,18.1,17.2,1.863,2.8,17,42,5.5,0.00126,0.00162,34.9,34.2,8,293,0,.,5.97,0.00,0.00
15min,AgWx,beryljct,423,28NOV2020:15:45:00,50.7,13.95,45.0,45.0,45.0,45.3,44.7,33,33,33,0.333,17.6,17.9,17.3,1.776,2.5,41,27,4.6,0.00105,0.00137,35.3,34.3,8,254,0,.,5.97,0.00,0.00
15min,AgWx,beryljct,423,28NOV2020:16:00:00,51.0,13.94,45.8,45.2,45.2,45.5,45.0,33,33,32,0.336,17.6,18.0,17.4,0,1.5,47,31,3.6,0.00074,0.00095,35.6,34.4,8,214,0,.,5.97,0.00,0.00
15min,AgWx,beryljct,423,28NOV2020:16:15:00,51.1,13.96,45.0,45.0,45.2,45.4,45.0,33,33,33,0.336,17.7,18.1,17.5,2.784,1.3,47,14,2.9,0.00049,0.00066,35.9,34.5,8,174,0,.,5.97,0.00,0.00
15min,AgWx,beryljct,423,28NOV2020:16:30:00,50.9,13.93,44.9,44.5,44.8,45.1,44.4,33,34,33,0.333,17.5,17.8,17.3,2.631,2.3,10,14,3.8,0.00031,0.00044,36.1,34.6,8,137,0,.,5.97,0.00,0.00
15min,AgWx,beryljct,423,28NOV2020:16:45:00,50.0,13.99,44.3,43.8,44.3,44.8,43.8,33,34,33,0.327,17.3,17.5,17.0,3.858,2.6,5.9,9.9,4.4,0.00024,0.00035,36.3,34.8,8,99,0,.,5.97,0.00,0.00
15min,AgWx,beryljct,423,28NOV2020:17:00:00,48.4,13.19,40.8,41.0,43.5,44.3,41.0,34,37,33,0.320,16.8,17.3,15.7,2.302,2.8,3.8,5.1,4.1,0.00015,0.00023,36.4,34.9,8,43,0,.,5.98,0.00,0.00
15min,AgWx,beryljct,423,28NOV2020:17:15:00,45.1,13.1,33.7,35.5,37.5,41.3,34.7,42,46,36,0.309,16.4,17.5,15.4,3.288,3.2,321,20,4.1,0.00007,0.00012,36.5,35.0,9,10,0,.,5.98,0.00,0.00
15min,AgWx,beryljct,423,28NOV2020:17:30:00,40.9,13.03,34.9,34.7,35.1,35.9,34.6,44,45,43,0.302,15.4,16.0,15.0,3.968,4.1,304,4.0,4.3,0.00009,0.00014,36.5,35.1,9,4,0,.,5.98,0.00,0.00
15min,AgWx,beryljct,423,28NOV2020:17:45:00,37.4,13.02,36.9,35.5,33.2,35.5,31.0,46,50,43,0.303,14.9,15.4,13.9,3.354,3.4,310,4.5,4.0,0.00004,0.00008,36.5,35.2,9,1,0,.,5.98,0.00,0.00
15min,AgWx,beryljct,423,28NOV2020:18:00:00,35.0,13,34.0,33.6,35.0,35.9,33.6,43,45,42,0.291,14.9,15.3,14.3,3.223,3.5,324,4.1,3.8,0.00006,0.00010,36.4,35.4,8,0,0,.,5.98,0.00,0.00
15min,AgWx,beryljct,423,28NOV2020:18:15:00,33.3,12.98,33.3,33.4,33.3,33.7,32.9,45,46,45,0.293,14.3,14.5,14.1,4.209,3.4,315,7.9,4.2,0.00005,0.00008,36.2,35.5,9,0,0,.,5.98,0.00,0.00
15min,AgWx,beryljct,423,28NOV2020:18:30:00,32.3,12.97,34.3,33.4,33.4,33.8,32.5,46,47,45,0.300,14.7,15.1,13.8,3.661,3.9,309,9.0,4.4,0.00007,0.00011,36.0,35.6,9,0,0,.,5.98,0.00,0.00
15min,AgWx,beryljct,423,28NOV2020:18:45:00,31.6,12.95,32.9,33.4,33.9,34.9,32.9,46,47,44,0.298,15.2,15.7,14.6,3.573,3.8,315,13,4.5,0.00007,0.00011,35.8,35.7,9,0,0,.,5.98,0.00,0.00
15min,AgWx,beryljct,423,28NOV2020:19:00:00,31.1,12.95,30.1,30.1,32.5,33.8,30.1,47,50,46,0.284,14.5,15.3,13.7,3.946,3.8,340,3.6,4.8,0.00006,0.00009,35.6,35.8,8,0,0,.,5.99,0.00,0.00
15min,AgWx,beryljct,423,28NOV2020:19:15:00,30.3,12.93,31.0,30.2,30.3,31.1,29.3,50,52,50,0.289,14.1,14.6,13.5,4.297,4.4,313,9.4,4.9,0.00007,0.00010,35.4,35.9,9,0,0,.,5.98,0.00,0.00
15min,AgWx,beryljct,423,28NOV2020:19:30:00,29.6,12.93,28.9,30.5,30.0,30.9,28.4,51,53,50,0.290,14.1,14.8,12.8,3.683,3.7,314,12,5.0,0.00004,0.00007,35.1,36.0,8,0,0,.,5.99,0.00,0.00
15min,AgWx,beryljct,423,28NOV2020:19:45:00,29.2,12.91,31.9,29.9,30.4,30.9,29.5,51,52,49,0.289,14.3,14.8,13.8,5.371,4.5,336,12,6.0,0.00007,0.00011,34.9,36.1,9,0,0,.,5.99,0.00,0.00
15min,AgWx,beryljct,423,28NOV2020:20:00:00,28.9,12.91,27.1,27.2,28.8,30.2,26.7,53,56,51,0.280,13.9,14.9,12.9,2.806,4.4,327,9.5,7.4,0.00006,0.00009,34.7,36.1,8,0,0,.,5.98,0.00,0.00
15min,AgWx,beryljct,423,28NOV2020:20:15:00,28.3,12.9,28.8,28.8,28.4,29.8,27.1,54,56,52,0.289,14.1,14.7,13.3,2.236,3.2,315,11,4.3,0.00001,0.00003,34.5,36.2,8,0,0,.,5.99,0.00,0.00
15min,AgWx,beryljct,423,28NOV2020:20:30:00,27.8,12.87,29.3,29.3,29.1,29.9,28.5,53,54,51,0.284,14.0,14.7,13.7,2.061,2.6,348,14,3.7,-0.00002,-0.00001,34.3,36.3,8,0,0,.,5.99,0.00,0.00
15min,AgWx,beryljct,423,28NOV2020:20:45:00,27.4,12.87,27.3,26.7,27.5,29.3,26.1,55,57,52,0.280,13.2,13.8,11.7,3.595,3.2,327,15,4.7,0.00001,0.00002,34.1,36.3,8,0,0,.,5.99,0.00,0.00
15min,AgWx,beryljct,423,28NOV2020:21:00:00,26.9,12.87,29.7,28.3,27.4,28.3,25.1,56,59,54,0.293,13.6,14.5,11.9,2.17,2.9,317,15,4.1,-0.00001,0.00000,33.8,36.3,8,0,0,.,5.99,0.00,0.00
15min,AgWx,beryljct,423,28NOV2020:21:15:00,26.4,12.85,28.5,28.9,28.1,28.9,27.3,55,56,54,0.291,14.1,14.6,13.3,0.395,1.2,296,4.6,2.5,-0.00012,-0.00015,33.6,36.3,8,0,0,.,5.99,0.00,0.00
15min,AgWx,beryljct,423,28NOV2020:21:30:00,25.8,12.85,23.1,23.7,26.7,28.9,23.7,56,61,54,0.263,13.3,14.8,12.0,2.696,1.3,342,56,3.8,-0.00010,-0.00013,33.5,36.4,8,0,0,.,5.99,0.00,0.00
15min,AgWx,beryljct,423,28NOV2020:21:45:00,24.9,12.84,23.0,22.1,22.4,24.8,20.8,64,66,60,0.261,11.9,13.6,9.3,2.499,2.0,132,22,3.0,-0.00006,-0.00007,33.3,36.4,8,0,0,.,6.00,0.00,0.00
15min,AgWx,beryljct,423,28NOV2020:22:00:00,23.7,12.83,18.9,19.3,21.6,22.6,19.3,64,65,62,0.231,11.2,12.1,9.2,0.723,1.9,181,14,3.1,-0.00007,-0.00008,33.0,36.4,8,0,0,.,6.00,0.00,0.00
15min,AgWx,beryljct,423,28NOV2020:22:15:00,22.5,12.82,19.0,18.8,18.7,19.6,17.5,69,72,65,0.248,10.3,11.9,8.4,0,0.5,191,1.8,1.7,-0.00014,-0.00020,32.8,36.4,8,0,0,.,6.00,0.00,0.00
15min,AgWx,beryljct,423,28NOV2020:22:30:00,21.4,12.8,16.7,19.4,20.3,21.7,18.8,67,70,63,0.232,11.3,12.0,9.2,1.841,1.2,191,3.2,2.3,-0.00010,-0.00013,32.6,36.4,8,0,0,.,6.00,0.00,0.00
15min,AgWx,beryljct,423,28NOV2020:22:45:00,20.4,12.8,12.2,12.5,15.7,19.1,12.5,72,76,64,0.195,8.2,10.9,5.4,2.258,0.7,210,31,2.5,-0.00012,-0.00016,32.4,36.4,8,0,0,.,6.00,0.00,0.00
15min,AgWx,beryljct,423,28NOV2020:23:00:00,19.3,12.8,18.2,16.9,14.1,16.9,11.9,70,72,68,0.228,6.0,8.9,4.4,0,1.2,309,8.2,3.0,-0.00009,-0.00011,32.2,36.4,8,0,0,.,6.00,0.00,0.00
15min,AgWx,beryljct,423,28NOV2020:23:15:00,18.5,12.77,15.8,16.1,17.3,18.1,16.1,69,70,67,0.220,8.9,9.5,7.7,0,0.1,306,0.0,0.6,-0.00017,-0.00026,32.0,36.4,8,0,0,.,6.00,0.00,0.00
15min,AgWx,beryljct,423,28NOV2020:23:30:00,17.8,12.77,16.9,14.8,15.3,17.4,13.4,70,73,67,0.213,7.4,10.0,5.6,1.118,0.7,358,30,2.1,-0.00012,-0.00017,31.8,36.4,8,0,0,.,6.00,0.00,0.00
15min,AgWx,beryljct,423,28NOV2020:23:45:00,17.5,12.77,23.9,22.3,18.1,22.3,14.9,71,74,68,0.278,10.4,13.3,7.6,2.543,2.3,297,15,3.2,-0.00006,-0.00006,31.5,36.3,8,0,0,.,6.00,0.00,0.00
15min,AgWx,bigpiney,439,28NOV2020:00:00:00,8.1,12.56,6.7,6.2,5.9,6.6,5.1,82,84,81,0.169,1.6,2.3,0.5,3.266,3.6,234,13,5.3,-0.00003,-0.00003,32.2,35.0,46,0,0,0.0,0.50,0.00,0.00
15min,AgWx,bigpiney,439,28NOV2020:00:15:00,7.8,12.56,5.7,6.2,7.0,7.7,5.9,82,84,80,0.162,2.6,3.4,1.4,4.253,3.7,244,5.8,4.9,-0.00003,-0.00003,32.2,35.0,46,0,0,0.0,0.50,0.00,0.00
15min,AgWx,bigpiney,439,28NOV2020:00:30:00,7.5,12.55,4.9,3.5,4.8,6.1,3.0,81,83,80,0.146,0.3,1.3,-1.7,0,2.6,212,33,4.6,-0.00004,-0.00005,32.2,35.0,46,0,0,0.0,0.50,0.00,0.00
15min,AgWx,bigpiney,439,28NOV2020:00:45:00,7.1,12.53,6.4,6.5,5.8,6.9,3.6,82,84,81,0.166,1.6,2.7,-0.6,1.885,1.0,228,24,2.5,-0.00008,-0.00011,32.2,35.0,46,0,0,0.0,0.50,0.00,0.00
15min,AgWx,bigpiney,439,28NOV2020:01:00:00,6.6,12.53,7.0,6.4,7.6,10.3,6.1,81,84,76,0.165,2.9,5.9,0.3,3.749,2.2,313,65,6.1,-0.00006,-0.00007,32.2,35.0,46,0,0,0.0,0.50,0.00,0.00
15min,AgWx,bigpiney,439,28NOV2020:01:15:00,6.4,12.52,8.7,7.9,7.0,7.9,6.1,83,85,82,0.182,3.0,4.0,2.0,2.455,2.5,343,11,4.2,-0.00005,-0.00006,32.2,35.0,46,0,0,0.0,0.50,0.00,0.00
15min,AgWx,bigpiney,439,28NOV2020:01:30:00,6.4,12.5,6.1,5.5,7.3,8.5,5.5,83,83,81,0.161,3.1,4.4,1.2,1.403,3.4,306,24,4.3,-0.00004,-0.00004,32.2,35.0,46,0,0,0.0,0.50,0.00,0.00
15min,AgWx,bigpiney,439,28NOV2020:01:45:00,6.3,12.49,7.6,7.1,5.9,7.2,5.2,84,86,82,0.178,2.2,3.7,1.2,3.069,2.4,266,12,3.9,-0.00005,-0.00006,32.2,35.0,46,0,0,0.0,0.50,0.00,0.00
15min,AgWx,bigpiney,439,28NOV2020:02:00:00,6.1,12.49,8.3,7.6,8.3,9.8,6.5,83,85,80,0.175,4.2,5.8,1.9,2.762,1.1,261,19,3.7,-0.00009,-0.00012,32.2,34.9,46,0,0,0.0,0.50,0.00,0.00
15min,AgWx,bigpiney,439,28NOV2020:02:15:00,6.0,12.47,3.5,5.3,7.7,10.0,4.6,82,84,77,0.157,3.2,5.9,-0.6,3.179,3.7,242,6.3,4.9,-0.00003,-0.00004,32.2,35.0,46,0,0,0.0,0.50,0.00,0.00
15min,AgWx,bigpiney,439,28NOV2020:02:30:00,5.6,12.47,3.8,2.6,2.9,5.0,1.8,81,84,79,0.144,-1.5,0.3,-2.5,4.099,4.1,223,4.9,5.9,-0.00002,-0.00002,32.2,35.0,46,0,0,0.0,0.50,0.00,0.00
15min,AgWx,bigpiney,439,28NOV2020:02:45:00,5.2,12.46,3.5,2.8,2.8,3.7,2.1,83,85,82,0.145,-1.1,0.1,-2.0,4.275,4.3,217,7.9,5.6,-0.00002,-0.00002,32.2,35.0,46,0,0,0.0,0.50,0.00,0.00
15min,AgWx,bigpiney,439,28NOV2020:03:00:00,4.8,12.45,5.1,2.5,2.7,3.1,2.1,83,84,83,0.142,-1.2,-0.6,-2.0,2.543,4.0,236,7.8,5.0,-0.00003,-0.00003,32.2,35.0,46,0,0,0.0,0.50,0.00,0.00
15min,AgWx,bigpiney,439,28NOV2020:03:15:00,4.4,12.44,2.4,1.9,3.1,5.4,1.8,83,87,81,0.136,-0.9,2.3,-2.6,4.516,3.9,224,10,5.5,-0.00003,-0.00003,32.2,35.0,46,0,0,0.0,0.50,0.00,0.00
15min,AgWx,bigpiney,439,28NOV2020:03:30:00,4.0,12.44,2.9,2.3,2.3,2.9,1.5,84,85,83,0.140,-1.6,-0.8,-2.6,4.143,4.3,225,9.1,5.1,-0.00002,-0.00002,32.2,35.0,46,0,0,0.0,0.50,0.00,0.00
15min,AgWx,bigpiney,439,28NOV2020:03:45:00,3.7,12.42,4.6,3.6,2.3,3.6,1.3,83,86,81,0.153,-1.6,0.2,-3.1,0,2.6,252,23,4.6,-0.00004,-0.00005,32.2,35.0,46,0,0,0.0,0.50,0.00,0.00
15min,AgWx,bigpiney,439,28NOV2020:04:00:00,3.4,12.42,2.6,3.4,4.1,4.7,3.1,84,85,82,0.145,0.3,1.0,-1.0,1.776,1.4,244,17,2.4,-0.00007,-0.00009,32.2,35.0,46,0,0,0.0,0.50,0.00,0.00
15min,AgWx,bigpiney,439,28NOV2020:04:15:00,3.0,12.42,3.7,4.8,4.1,5.3,1.4,84,86,79,0.160,0.2,1.8,-3.6,2.28,1.3,219,17,3.4,-0.00007,-0.00009,32.2,35.0,46,0,0,0.0,0.50,0.00,0.00
15min,AgWx,bigpiney,439,28NOV2020:04:30:00,2.5,12.41,5.6,4.5,5.1,5.8,4.2,84,85,82,0.154,1.2,2.2,0.1,2.806,1.3,124,30,2.8,-0.00007,-0.00009,32.2,35.0,46,0,0,0.0,0.50,0.00,0.00
15min,AgWx,bigpiney,439,28NOV2020:04:45:00,2.3,12.41,4.5,3.5,4.4,4.9,3.1,84,85,82,0.150,0.6,1.2,-1.1,0,0.8,120,18,2.8,-0.00009,-0.00012,32.2,35.0,46,0,0,0.0,0.50,0.00,0.00
15min,AgWx,bigpiney,439,28NOV2020:05:00:00,2.2,12.4,4.1,3.5,3.6,3.8,3.2,84,85,84,0.149,-0.1,0.2,-0.5,1.863,1.1,355,26,1.9,-0.00008,-0.00010,32.2,35.0,46,0,0,0.0,0.50,0.00,0.00
15min,AgWx,bigpiney,439,28NOV2020:05:15:00,2.1,12.4,4.7,4.0,3.7,4.1,3.2,84,84,84,0.153,-0.1,0.4,-0.6,1.732,1.9,298,17,2.9,-0.00006,-0.00007,32.2,35.0,46,0,0,0.0,0.50,0.00,0.00
15min,AgWx,bigpiney,439,28NOV2020:05:30:00,2.2,12.39,6.3,5.8,5.1,5.8,4.0,84,84,83,0.164,1.2,1.7,0.2,1.293,1.8,279,6.9,2.9,-0.00006,-0.00008,32.2,34.9,46,0,0,0.0,0.50,0.00,0.00
15min,AgWx,bigpiney,439,28NOV2020:05:45:00,2.5,12.39,7.4,6.4,6.2,6.8,5.6,83,84,82,0.170,2.1,2.9,1.4,3.113,2.3,267,6.8,3.1,-0.00005,-0.00006,32.2,35.0,46,0,0,0.0,0.50,0.00,0.00
15min,AgWx,bigpiney,439,28NOV2020:06:00:00,2.2,12.39,0.7,0.4,4.1,6.9,0.3,82,85,79,0.124,-0.2,3.2,-4.6,4.077,3.8,243,8.6,5.0,-0.00003,-0.00003,32.2,35.0,46,0,0,0.0,0.50,0.00,0.00
15min,AgWx,bigpiney,439,28NOV2020:06:15:00,1.7,12.38,1.3,0.9,0.5,1.3,-0.1,83,85,81,0.131,-3.4,-2.3,-4.3,4.867,4.6,226,4.1,5.2,-0.00002,-0.00002,32.2,35.0,46,0,0,0.0,0.50,0.00,0.00
15min,AgWx,bigpiney,439,28NOV2020:06:30:00,1.6,12.38,1.5,1.4,1.3,2.0,0.7,84,85,83,0.135,-2.5,-1.6,-3.3,3.244,4.5,233,4.5,5.4,-0.00002,-0.00002,32.2,35.0,46,0,0,0.0,0.50,0.00,0.00
15min,AgWx,bigpiney,439,28NOV2020:06:45:00,1.5,12.38,5.1,2.7,1.7,2.7,0.9,84,85,83,0.146,-1.9,-0.8,-3.0,3.88,3.8,249,19,4.5,-0.00003,-0.00003,32.2,35.0,46,0,0,0.0,0.50,0.00,0.00
15min,AgWx,bigpiney,439,28NOV2020:07:00:00,1.5,12.38,2.5,2.1,2.9,3.8,2.1,85,87,84,0.141,-0.6,0.5,-1.7,0.702,2.1,325,12,4.1,-0.00005,-0.00006,32.2,34.9,46,0,0,0.0,0.50,0.00,0.00
15min,AgWx,bigpiney,439,28NOV2020:07:15:00,1.4,12.38,3.0,2.2,2.1,2.4,1.8,85,86,84,0.145,-1.4,-1.0,-1.8,0,0.2,317,53,0.9,-0.00010,-0.00015,32.2,35.0,46,1,0,0.0,0.50,0.00,0.00
15min,AgWx,bigpiney,439,28NOV2020:07:30:00,1.2,12.45,4.4,3.4,2.1,3.4,0.3,85,87,82,0.155,-1.3,0.5,-3.8,1.25,1.3,209,9.9,3.0,-0.00006,-0.00008,32.2,34.9,46,4,0,0.0,0.50,0.00,0.00
15min,AgWx,bigpiney,439,28NOV2020:07:45:00,1.0,14.98,5.2,4.6,3.9,4.6,1.9,85,87,81,0.160,0.5,1.2,-2.5,0,0.5,201,3.9,2.3,-0.00014,-0.00014,32.2,35.0,46,26,0,0.0,0.50,0.00,0.00
15min,AgWx,bigpiney,439,28NOV2020:08:00:00,1.2,14.99,3.6,3.1,4.1,4.9,3.1,83,85,82,0.143,0.2,1.3,-1.2,2.192,1.4,29,22,2.3,-0.00006,-0.00005,32.1,35.0,46,55,0,0.0,0.50,0.00,0.00
15min,AgWx,bigpiney,439,28NOV2020:08:15:00,2.3,14.99,3.2,2.5,2.9,3.8,2.4,81,82,80,0.140,-1.5,-0.5,-2.2,1.403,2.0,353,15,3.0,0.00002,0.00003,32.1,34.9,46,87,0,0.0,0.50,0.00,0.00
15min,AgWx,bigpiney,439,28NOV2020:08:30:00,4.0,15,6.9,6.3,4.0,6.4,2.5,83,84,82,0.171,0.0,2.6,-1.7,0,0.4,313,17,1.3,0.00007,0.00007,32.1,34.9,46,121,0,0.0,0.50,0.00,0.00
15min,AgWx,bigpiney,439,28NOV2020:08:45:00,6.3,14.99,9.0,8.5,7.3,8.5,6.3,85,86,84,0.189,3.7,4.8,2.5,0,0.0,53,6.1,0.8,0.00015,0.00016,32.1,35.0,46,155,0,0.0,0.50,0.00,0.00
15min,AgWx,bigpiney,439,28NOV2020:09:00:00,8.9,14.75,11.2,10.1,9.3,10.1,8.5,83,84,82,0.202,5.2,6.1,4.5,0,0.0,216,9.9,0.7,0.00025,0.00027,32.1,35.0,46,190,0,0.0,0.50,0.00,0.00
15min,AgWx,bigpiney,439,28NOV2020:09:15:00,11.7,14.71,12.8,12.3,11.2,12.4,10.1,84,85,83,0.223,7.1,8.6,6.0,0.526,0.6,217,22,1.7,0.00036,0.00039,32.1,34.9,46,225,0,0.0,0.50,0.00,0.00